Location: Baumgartsau
(48.4586°N, 14.0864°E)
Time: 14:53:04
(UTC+00:00)

BREEZE M DEB (TANK) - Pass Details

Date: 14 May 2021
Orbit: 296 x 11842 km, 49.5° (Epoch: 19 June)

Event Time Altitude Azimuth Distance (km) Brightness Sun altitude
Rises 19:27:31 0° 292° (WNW) 5,053 8.9 -7.8°
Reaches altitude 10° 19:29:38 10° 290° (WNW) 4,591 8.3 -8.0°
Maximum altitude 19:44:37 75° 209° (SSW) 4,817 7.0 -9.9°
Enters shadow 20:45:21 16° 140° (SE) 14,842 8.8 -16.3°
